Charlottetown, Prince Edward Island

6:30 PM ADT on August 24, 2016 (GMT -0300)
Charlottetown

Weather History for CYYG - September, 2013

Change the Weather History Date:

Monday, September 9, 2013

  Actual Average Record
Temperature  
Mean Temperature 54 °F -  
Max Temperature 62 °F 61 °F 87 °F (2001)
Min Temperature 45 °F 45 °F 38 °F (2014)
Degree Days  
Heating Degree Days 12    
Growing Degree Days 4 (Base 50)    
Moisture  
Dew Point 42 °F    
Average Humidity 66    
Maximum Humidity 87    
Minimum Humidity 33    
Precipitation  
Precipitation 0.00 in 0.13 in - ()
Sea Level Pressure  
Sea Level Pressure 29.96 in    
Wind  
Wind Speed 11 mph ()    
Max Wind Speed 20 mph    
Max Gust Speed 28 mph    
Visibility 15.0 miles    
Events      
Averages and records for this station are not official NWS values.
T = Trace of Precipitation, MM = Missing Value Source: Averaged Metar Reports

Daily Weather History Graph

Daily Weather History Graph

Search for Another Location

Airport or City:

Trip Planner

Search our weather history database for the weather conditions in past years. The results will help you decide how hot, cold, wet, or windy it might be!

Date:

Astronomy

Sep. 09, 2013 Rise Set
Actual Time 6:43 AM ADT 7:35 PM ADT
Civil Twilight 6:12 AM ADT 8:05 PM ADT
Nautical Twilight 5:36 AM ADT 8:42 PM ADT
Astronomical Twilight 4:57 AM ADT 9:20 PM ADT
Moon 11:17 AM ADT (9/9) 9:30 PM ADT (9/9)
Length of Visible Light 13h 53m
Length of Day
12h 52m
Waxing Crescent, 18% of the Moon is Illuminated
Sep 9
Waxing Crescent
Sep 12
First Quarter
Sep 19
Full
Sep 27
Last Quarter
Oct 4
New

Hourly Weather History & Observations

Time (ADT) Temp. Windchill Dew Point Humidity Pressure Visibility Wind Dir Wind Speed Gust Speed Precip Events Conditions
12:00 AM 48.2 °F - 42.8 °F 82% 29.73 in 15.0 mi West 8.1 mph - N/A   Partly Cloudy
1:00 AM 46.4 °F 41.9 °F 42.8 °F 87% 29.74 in 15.0 mi West 9.2 mph - N/A   Clear
2:00 AM 46.4 °F 41.1 °F 42.8 °F 87% 29.76 in 15.0 mi West 11.5 mph 18.4 mph N/A   Clear
3:00 AM 46.4 °F 41.1 °F 42.8 °F 87% 29.78 in 15.0 mi West 11.5 mph 18.4 mph N/A   Partly Cloudy
4:00 AM 48.2 °F - 42.8 °F 82% 29.81 in 15.0 mi West 11.5 mph - N/A   Mostly Cloudy
5:00 AM 48.2 °F - 42.8 °F 82% 29.85 in 15.0 mi West 10.4 mph 18.4 mph N/A   Mostly Cloudy
6:00 AM 46.4 °F 41.1 °F 42.8 °F 87% 29.89 in 15.0 mi West 11.5 mph 18.4 mph N/A   Partly Cloudy
7:00 AM 46.4 °F 40.7 °F 42.8 °F 87% 29.92 in 15.0 mi West 12.7 mph 19.6 mph N/A   Partly Cloudy
8:00 AM 48.2 °F - 42.8 °F 82% 29.96 in 15.0 mi West 12.7 mph 18.4 mph N/A   Partly Cloudy
9:00 AM 50 °F - 43 °F 68% 29.99 in 15 mi West 12.7 mph - -   Scattered Clouds
9:00 AM 50.0 °F - 42.8 °F 76% 29.99 in 15.0 mi West 11.5 mph 18.4 mph N/A   Partly Cloudy
10:00 AM 51.8 °F - 42.8 °F 71% 30.01 in 15.0 mi West 12.7 mph - N/A   Partly Cloudy
11:00 AM 55.4 °F - 37.4 °F 51% 30.03 in 15.0 mi West 13.8 mph 19.6 mph N/A   Partly Cloudy
12:00 PM 57.2 °F - 35.6 °F 44% 30.03 in 15.0 mi West 16.1 mph 24.2 mph N/A   Partly Cloudy
1:00 PM 57.2 °F - 39.2 °F 51% 30.04 in 15.0 mi West 13.8 mph 20.7 mph N/A   Partly Cloudy
2:00 PM 59.0 °F - 35.6 °F 42% 30.02 in 15.0 mi WSW 16.1 mph 24.2 mph N/A   Partly Cloudy
3:00 PM 60 °F - 39 °F 33% 30.01 in 15 mi WSW 16.1 mph - -   Scattered Clouds
3:00 PM 60.8 °F - 39.2 °F 45% 30.01 in 15.0 mi WSW 17.3 mph 25.3 mph N/A   Scattered Clouds
4:00 PM 60.8 °F - 42.8 °F 52% 30.01 in 15.0 mi WSW 16.1 mph 24.2 mph N/A   Mostly Cloudy
5:00 PM 60.8 °F - 42.8 °F 52% 30.02 in 15.0 mi SW 17.3 mph 25.3 mph N/A   Mostly Cloudy
6:00 PM 60.8 °F - 42.8 °F 52% 30.01 in 15.0 mi SSW 19.6 mph 27.6 mph N/A   Mostly Cloudy
7:00 PM 59.0 °F - 44.6 °F 59% 30.01 in 15.0 mi SSW 17.3 mph 23.0 mph N/A   Mostly Cloudy
8:00 PM 55.4 °F - 44.6 °F 67% 30.02 in 15.0 mi SSW 12.7 mph 19.6 mph N/A   Partly Cloudy
9:00 PM 55 °F - 44 °F 58% 30.05 in 15 mi SW 11.5 mph - -   Clear
9:00 PM 55.4 °F - 44.6 °F 67% 30.05 in 15.0 mi SW 10.4 mph 17.3 mph N/A   Partly Cloudy
10:00 PM 55.4 °F - 44.6 °F 67% 30.06 in 15.0 mi SW 15.0 mph 23.0 mph N/A   Clear
11:00 PM 53.6 °F - 44.6 °F 72% 30.07 in 15.0 mi SW 11.5 mph 21.9 mph N/A   Clear